Flag for U.S.A. Weather past 2 weeks in Escondido, California, U.S.A.

Now
49 °F

Light rain. Fog.


Feels Like: 43 °F
Forecast: 48 / 56 °F
Wind: 15 mph from East

Location: Ramona Airport

Current Time: Mar 1, 2015 at 12:06:14 PM

Latest Report: Mar 1, 2015 at 10:53 AM


Visibility: 5 mi

Pressure: 29.95 "Hg

Humidity: 86%

Dew point: 45 °F

Location of EscondidoLocation

Historic Weather in Escondido — Graph

°F

Escondido temperature yesterday

Maximum temperature yesterday: 56 °F (at 2:53 PM)
Minimum temperature yesterday: 49 °F (at 5:53 AM)
Average temperature yesterday: 52 °F

Past Weeks' High & Low Weather Summary

 TemperatureHumidityPressure
High82 °F (Feb 14, 1:53 PM)100% (Feb 16, 10:53 PM)30.22 "Hg (Feb 16, 10:53 PM)
Low33 °F (Feb 24, 5:53 AM)15% (Feb 14, 11:53 AM)29.76 "Hg (Feb 27, 4:53 PM)
Average53 °F73%29.98 "Hg
* Reported Feb 14 10:53 AM — Mar 1 10:53 AM, Escondido, Weather by CustomWeather, © 2015

Note: Actual official high and low records may vary slightly from our data, if they occured in-between our weather recording intervals... More about our weather records

Advertising

Escondido weather history for previous 24 hours

 ConditionsComfort  
Time TempWeatherWind HumidityBarometerVisibility
10:53 AM
Sun, Mar 1
49 °FLight rain. Fog.15 mph86%29.95 "Hg5 mi
9:53 AM49 °FLight rain. Fog.8 mph90%29.97 "Hg6 mi
8:53 AM48 °FRain. Fog.7 mph93%29.96 "Hg6 mi
7:53 AM48 °FRain. Fog.3 mph93%29.94 "Hg4 mi
6:53 AM49 °FLight rain. Overcast.3 mph93%29.92 "Hg8 mi
5:53 AM49 °FLight rain. Mostly cloudy.3 mph97%29.90 "Hg8 mi
4:53 AM49 °FLight rain. Mostly cloudy.5 mph93%29.89 "Hg10 mi
3:53 AM49 °FLight rain. Mostly cloudy.6 mph93%29.88 "Hg10 mi
2:53 AM49 °FPassing clouds.3 mph93%29.90 "Hg10 mi
1:53 AM49 °FOvercast.5 mph93%29.92 "Hg10 mi
12:53 AM49 °FPassing clouds.No wind93%29.92 "Hg10 mi
11:53 PM
Sat, Feb 28
49 °FCool.No wind93%29.92 "Hg10 mi
11:01 PM50 °FOvercast.No wind93%29.92 "Hg10 mi
9:53 PM49 °FLight rain. Fog.No wind97%29.90 "Hg4 mi
8:53 PM49 °FPartly cloudy.No wind93%29.89 "Hg10 mi
8:00 PM50 °FLight rain. Mostly cloudy.No wind93%29.90 "Hg10 mi
6:53 PM51 °FMostly cloudy.3 mph86%29.88 "Hg10 mi
5:53 PM51 °FPassing clouds.7 mph86%29.87 "Hg10 mi
4:53 PM53 °FMostly cloudy.8 mph80%29.86 "Hg10 mi
3:53 PM55 °FOvercast.12 mph69%29.85 "Hg10 mi
2:53 PM56 °FScattered clouds.9 mph62%29.84 "Hg10 mi
1:53 PM55 °FOvercast.12 mph74%29.85 "Hg10 mi
12:53 PM52 °FLight rain. Fog.15 mph86%29.87 "Hg4 mi
Weather by CustomWeather, © 2015

See weather overviewHow to use our weather pages